#timestamp,LO_Frequency,Hit 
1504479615.2,286047016.0,N
1504479635.9,286047016.1,N
1504479655.7,286047019.8,N
1504479675.6,286047023.0,N
1504479695.4,286047022.0,N
1504479715.2,286047020.1,N
1504479735.1,286047019.9,N
1504479736.0,286047019.9,N
1504479755.8,286047023.2,N
1504479775.6,286047022.3,N
1504479795.4,286047022.1,N
1504479815.3,286047023.1,N
1504479835.1,286047022.9,N
1504479855.8,286047025.9,N
1504479875.7,286047024.8,N
1504479895.5,286047023.8,N
1504479915.3,286047022.3,N
1504479935.2,286047026.4,N
1504479955.9,286047026.5,P
1504479975.7,286047010.2,N
1504479995.6,286047005.3,N
1504480015.4,286047010.8,N
1504480035.2,286047013.7,N
1504480055.1,286047015.2,N
1504480056.0,286047015.2,N
1504480075.8,286047011.4,N
1504480095.6,286047013.2,N
1504480115.5,286047009.6,N
1504480135.3,286047010.3,N
1504480155.1,286047007.8,N
1504480175.9,286047009.0,N
1504480195.7,286047007.6,N
1504480215.5,286047009.0,N
1504480235.4,286047009.2,N
1504480255.2,286047007.7,N
1504480275.0,286047012.2,N
1504480275.9,286047012.2,N
1504480295.8,286047009.0,N
1504480315.6,286047008.6,N
1504480335.4,286047007.4,N
1504480355.2,286047008.6,N
1504480375.1,286047012.1,N
1504480376.0,286047012.1,N
1504480395.8,286047013.9,P
1504480415.7,286047002.2,N
1504480435.5,286047004.4,N
1504480455.3,286047000.5,N
1504480475.1,286046996.3,N
1504480495.9,286046991.3,N
1504480515.7,286046987.9,N
1504480535.5,286046986.5,N
1504480555.4,286046988.1,N
1504480575.2,286046984.1,N
1504480595.0,286046983.6,N
1504480595.9,286046983.6,N
1504480615.8,286046983.0,N
1504480635.6,286046978.9,N
1504480655.4,286046976.7,N
1504480675.3,286046973.5,N
1504480695.1,286046975.2,N
1504480696.0,286046975.2,N
1504480715.8,286046974.9,N
1504480735.7,286046972.7,N
1504480755.5,286046972.5,N
1504480775.3,286046974.5,N
1504480795.2,286046975.0,N
1504480815.9,286046971.7,N
1504480835.7,286046968.4,N
1504480855.6,286046970.1,N
1504480875.4,286046967.8,N
1504480895.2,286046969.4,N
1504480915.0,286046973.9,N
1504480915.9,286046973.9,N
1504480935.8,286046974.0,N
1504480955.6,286046969.5,P
1504480975.5,286046991.2,N
1504480995.3,286046992.3,N
1504481015.1,286046989.5,N
1504481035.8,286046987.1,N
1504481055.7,286046987.7,N
1504481075.5,286046983.8,N
1504481095.3,286046984.4,N
1504481115.2,286046984.6,N
1504481135.9,286046986.7,N
1504481155.7,286046982.7,N
1504481175.6,286046980.7,P
1504481195.4,286046997.8,N
1504481215.2,286046997.2,N
1504481235.1,286046999.1,N
1504481236.0,286046999.1,N
1504481255.8,286046998.3,N
1504481275.6,286047000.5,N
1504481295.5,286046999.4,N
1504481315.3,286046997.1,N
1504481335.1,286046994.9,N
1504481355.9,286047002.6,N
1504481375.7,286047005.5,N
1504481395.5,286047009.7,N
1504481415.4,286047013.6,N
1504481435.2,286047016.0,N
1504481455.0,286047022.8,N
1504481455.9,286047022.8,N
1504481475.8,286047024.3,N
1504481495.6,286047023.9,N
1504481515.4,286047026.8,N
1504481535.3,286047024.4,N
1504481555.1,286047025.9,N
1504481556.0,286047025.9,N
1504481575.8,286047025.7,N
1504481595.7,286047028.6,N
1504481615.5,286047029.7,N
1504481635.3,286047030.6,N
1504481655.1,286047028.7,N
1504481675.9,286047030.6,N
1504481695.7,286047028.6,N
1504481715.5,286047031.5,N
1504481735.4,286047033.3,N
1504481755.2,286047035.7,N
1504481775.0,286047036.7,N
1504481775.9,286047036.7,N
1504481795.8,286047037.8,N
1504481815.6,286047035.1,N
1504481835.4,286047032.8,N
1504481855.3,286047033.1,N
1504481875.1,286047030.9,N
1504481895.8,286047010.2,P
1504481915.7,286047012.7,N
1504481935.5,286047013.0,N
1504481955.3,286047013.5,N
1504481975.2,286047015.6,N
1504481995.9,286047008.0,N
1504482015.7,286047013.5,N
1504482035.6,286047012.5,N
1504482055.4,286047012.7,N
1504482075.2,286047015.6,P
1504482095.1,286047000.1,N
1504482096.0,286047000.1,N
1504482115.8,286047002.5,N
1504482135.6,286047003.8,N
1504482155.5,286047001.8,N
1504482175.3,286047004.4,N
1504482195.1,286047000.7,N
1504482215.9,286047001.2,N
1504482235.7,286047002.5,N
1504482255.5,286047003.4,N
1504482275.4,286047004.0,N
1504482295.2,286047003.3,N
1504482315.0,286047004.1,N
1504482315.9,286047004.1,N
1504482335.8,286047000.6,N
1504482355.6,286047005.9,N
1504482375.4,286046998.1,N
1504482395.3,286046997.9,N
1504482415.1,286046990.4,N
1504482416.0,286046990.4,N
1504482435.8,286046989.9,N
1504482455.6,286046987.4,N
1504482475.5,286046987.5,N
1504482495.3,286046986.5,N
1504482515.1,286046984.0,N
1504482535.9,286046984.5,N
1504482555.7,286046981.5,N
1504482575.5,286046980.0,N
1504482595.4,286046974.8,N
1504482615.2,286046976.4,N
1504482635.0,286046976.8,N
1504482635.9,286046976.8,N
1504482655.8,286046978.3,N
1504482675.6,286046978.0,N
1504482695.4,286046978.8,N
1504482715.3,286046974.7,N
1504482735.1,286046975.0,N
1504482736.0,286046975.0,N
1504482755.8,286046974.8,N
1504482775.7,286046974.8,N
1504482795.5,286046971.4,N
1504482815.3,286046967.7,P
1504482835.2,286046982.2,N
1504482855.9,286046987.6,N
1504482875.7,286046987.0,N
1504482895.6,286046987.9,N
1504482915.4,286046984.3,N
1504482935.2,286046986.7,N
1504482955.1,286046985.6,N
1504482956.0,286046985.6,N
1504482975.8,286046984.5,N
1504482995.6,286046981.0,P
1504483015.5,286046996.6,N
1504483035.3,286046997.7,N
1504483055.1,286046996.9,N
1504483075.9,286046998.3,N
1504483095.7,286046995.9,N
1504483115.5,286046997.5,N
1504483135.4,286046999.6,N
1504483155.2,286046998.4,N
1504483175.0,286046999.2,N
1504483175.9,286046999.2,N
1504483195.8,286046995.3,N
